GW6061 Weather Reports


time (UTC)temp
C
wind
direction
speed
KPH
gust
KPH
rain 1hr
cm
rain 24hr
cm
rain mn
cm
humidity
%
barometer
mb
20260504060218 7 330 0.0 0.0 0.00 0.00 0.00 80 1009.6
20260504045015 7 330 0.0 0.0 0.00 0.00 0.00 80 1009.4
20260504041025 8 330 0.0 0.0 0.00 0.00 0.00 78 1009.4
20260504040029 8 330 0.0 0.0 0.00 0.00 0.00 74 1009.4
20260504035007 8 330 0.0 0.0 0.00 0.00 0.00 74 1009.1
20260504034009 8 330 0.0 0.0 0.00 0.00 0.00 72 1009.2
20260504031750 8 330 0.0 0.0 0.00 0.00 0.00 70 1009.0
20260504030735 9 330 0.0 0.0 0.00 0.00 0.00 70 1009.0
20260504025704 9 330 0.0 0.0 0.00 0.00 0.00 65 1009.1
20260504024641 10 330 0.0 0.0 0.00 0.00 0.00 65 1009.1
20260504023505 10 330 0.0 0.0 0.00 0.00 0.00 61 1008.9
20260504022446 10 330 0.0 0.0 0.00 0.00 0.00 64 1008.9
20260504021412 10 330 0.0 0.0 0.00 0.00 0.00 64 1008.9
20260503235059 15 330 0.0 0.0 0.00 0.00 0.00 36 1007.9
20260503234055 15 333 0.0 0.0 0.00 0.00 0.00 36 1007.7
20260503231939 15 326 0.0 0.0 0.00 0.00 0.00 36 1007.6
20260503230908 15 330 1.6 9.7 0.00 0.00 0.00 34 1007.6
20260503225903 16 323 1.6 9.7 0.00 0.00 0.00 35 1007.7
20260503224914 16 295 3.2 8.0 0.00 0.00 0.00 33 1007.7
20260503223905 16 342 4.8 12.9 0.00 0.00 0.00 33 1007.6
20260503221809 16 319 3.2 9.7 0.00 0.00 0.00 33 1007.6
20260503220759 16 333 1.6 20.9 0.00 0.00 0.00 32 1007.7
20260503214620 16 318 4.8 16.1 0.00 0.00 0.00 33 1007.6
20260503213644 16 109 1.6 14.5 0.00 0.00 0.00 33 1007.6
20260503212645 16 352 3.2 11.3 0.00 0.00 0.00 31 1007.5
20260503211636 16 356 3.2 9.7 0.00 0.00 0.00 31 1007.5
20260503210651 16 319 3.2 17.7 0.00 0.00 0.00 31 1007.6
20260503205627 16 340 4.8 17.7 0.00 0.00 0.00 29 1007.7
20260503204636 16 330 3.2 11.3 0.00 0.00 0.00 30 1007.7
20260503203624 16 323 4.8 20.9 0.00 0.00 0.00 31 1007.8
20260503202609 16 315 8.0 20.9 0.00 0.00 0.00 31 1007.9
20260503201628 16 346 8.0 16.1 0.00 0.00 0.00 30 1007.9
20260503200619 16 352 4.8 14.5 0.00 0.00 0.00 33 1008.1
20260503195613 15 313 3.2 6.4 0.00 0.00 0.00 35 1008.4
20260503194543 15 304 4.8 20.9 0.00 0.00 0.00 36 1008.4
20260503193526 15 343 8.0 17.7 0.00 0.00 0.00 34 1008.4
20260503192537 15 347 3.2 16.1 0.00 0.00 0.00 35 1008.6
20260503191520 15 333 0.0 1.6 0.00 0.00 0.00 35 1008.6
20260503185341 15 349 6.4 17.7 0.00 0.00 0.00 35 1009.0
20260503184334 15 340 3.2 9.7 0.00 0.00 0.00 35 1009.3
20260503183304 15 319 6.4 17.7 0.00 0.00 0.00 37 1009.3
20260503182326 15 301 4.8 19.3 0.00 0.00 0.00 37 1009.3
20260503180227 14 308 6.4 17.7 0.00 0.00 0.00 36 1009.3
20260503175212 14 329 4.8 17.7 0.00 0.00 0.00 38 1009.5
20260503174152 13 316 3.2 14.5 0.00 0.00 0.00 38 1009.4
20260503173130 14 318 3.2 19.3 0.00 0.00 0.00 37 1009.4
20260503172130 13 339 4.8 19.3 0.00 0.00 0.00 37 1009.6
20260503171152 13 332 8.0 24.1 0.00 0.00 0.00 36 1009.7
20260503170149 13 48 8.0 24.1 0.00 0.00 0.00 36 1009.7
20260503150906 11 322 3.2 17.7 0.00 0.00 0.00 42 1010.2
20260503130552 7 330 6.4 17.7 0.00 0.00 0.00 59 1010.4